SCP
0 0 0 0 0 0 0 0 0 0 0 0 0 0 0 0 0 0 0 0 0 0 0 0 0 0 0 0 0 0 0 0 0 0 0 0 0 0 0 0 0 0 0 0 0 0 0 0 0 0 0 0 0 0
0 0 0 0 0 0 0 0 0 0 0 0 0 0 0 0 0 0 0 0 0 0 0 0 0 0 0 0 0 0 0 0 0 0 0 0 0 0 0 0 0 0 0 0 0 0 0 0 0 0 0 0 0 0
0 0 0 0 0 0 0 0 0 0 0 0 0 0 0 0 0 0 0 0 0 0 0 0 0 0 0 0 0 0 0 0 0 0 0 0 0 0 0 0 0 0 0 0 0 0 0 0 0 0 0 0 0 0
-0 -0 -0 0 0 0 0 0 0 0 0 0 0 0 0 0 0 0 0 0 0 0 0 0 0 0 0 0 0 0 0 0 0 0 0 0 0 0 0 0 0 0 0 0 0 0 0 0 -0 0 0 0 0 0
0 -0 -0 -0 0 0 0 0 0 0 0 0 0 0 0 0 0 0 0 0 0 0 0 0 0 0 0 0 0 0 0 0 0 0 0 0 0 0 0 0 0 0 0 0 0 0 0 0 0 0 0 0 0 0
0 -0 0 0 0 0 0 0 0 0 0 0 0 0 0 0 0 0 0 0 0 0 0 0 0 0 0 0 0 0 0 0 0 0 0 0 0 0 0 0 0 0 0 0 0 0 0 0 0 0 0 0 0 0
0 0 0 0 0 -0 0 0 0 0 0 0 0 0 0 0 0 0 0 0 0 0 0 0 0 0 0 0 0 0 0 0 0 0 0 0 0 0 0 0 0 0 0 0 0 0 0 0 0 0 0 0 0 0
0 0 0 0 0 -0 0 0 0 0 0 0 0 0 0 0 0 0 0 0 0 0 0 0 0 0 0 0 0 0 0 0 0 0 0 0 0 0 0 0 0 0 0 0 0 0 0 0 0 0 0 0 0 0
0 0 0 0 0 -0 -0 0 0 0 0 0 0 0 0 0 0 0 0 0 0 0 0 0 0 0 0 0 0 0 0 0 0 0 0 0 0 0 0 0 0 0 0 0 0 0 0 0 0 0 0 0 0 0
0 -0 -0 -0 0 0 0 -0 0 0 0 0 0 0 0 0 0 0 0 0 0 0 0 0 0 0 0 0 0 0 0 0 0 0 0 0 0 0 0 0 0 0 0 0 0 0 0 0 0 0 0 0 0 0
0 -0 -0 -0 -0 0 0 0 0 0 0 0 0 0 0 0 0 0 0 0 0 0 0 0 0 0 0 0 0 0 0 0 0 0 0 0 0 0 0 0 0 0 0 0 0 0 0 0 0 0 0 0 0 0
0 -0 -0 -0 -0 0 0 0 0 0 0 0 0 0 0 0 0 0 0 0 0 0 0 0 0 0 0 0 0 0 0 0 0 0 0 0 0 0 0 0 0 0 0 0 0 0 0 0 0 0 0 0 0 0
0 -0 -0 0 0 0 0 0 0 0 0 0 0 0 0 0 0 0 0 0 0 0 0 0 0 0 0 0 0 0 0 0 0 0 0 0 0 0 0 0 0 0 0 0 0 0 0 0 0 0 0 0 0 0
0 0 -0 -0 0 0 0 0 0 0 0 0 0 0 0 0 0 0 0 0 0 0 0 0 0 0 0 0 0 0 0 0 0 0 0 0 0 0 0 0 0 0 0 0 0 0 0 0 0 0 0 0 0 0
-0 0 -0 0 -0 0 0 0 0 0 0 0 0 0 0 0 0 0 0 0 0 0 0 0 0 0 0 0 0 0 0 0 0 0 0 0 0 0 0 0 0 0 0 0 0 0 0 0 0 0 0 0 0 0
0 -0 0 0 0 0 0 0 0 0 0 0 0 0 0 0 0 0 0 0 0 0 0 0 0 0 0 0 0 0 0 0 0 0 0 0 0 0 0 0 0 0 0 0 0 0 0 0 0 0 0 0 0 0
0 -0 -0 0 0 0 0 0 0 0 0 0 0 0 0 0 0 0 0 0 0 0 0 0 0 0 0 0 0 0 0 0 0 0 0 0 0 0 0 0 0 0 0 0 0 0 0 0 0 0 0 0 0 0
-0 -0 0 0 0 0 0 0 0 0 0 0 0 0 0 0 0 0 0 0 0 0 0 0 0 0 0 0 0 0 0 0 0 0 0 0 0 0 0 0 0 0 0 0 0 0 0 0 0 0 0 0 0 0
0 -0 0 0 0 -0 0 0 0 0 0 0 0 0 0 0 0 0 0 0 0 0 0 0 0 0 0 0 0 0 0 0 0 0 0 0 0 0 0 0 0 0 0 0 0 0 0 0 0 0 0 0 0 0
0 0 0 0 0 0 0 0 0 0 0 0 0 0 0 0 0 0 0 0 0 0 0 0 0 0 0 0 0 0 0 0 0 0 0 0 0 0 0 0 0 0 0 0 0 0 0 0 0 0 0 0 0 0
0 0 0 0 0 0 0 0 0 0 0 0 0 0 0 0 0 0 0 0 0 0 0 0 0 0 0 0 0 0 0 0 0 0 0 0 0 0 0 0 0 0 0 0 0 0 0 0 0 0 0 0 0 0
0 0 0 0 0 0 0 0 0 0 0 0 0 0 0 0 0 0 0 0 0 0 0 0 0 0 0 0 0 0 0 0 0 0 0 0 0 0 0 0 0 0 0 0 0 0 0 0 0 0 0 0 0 0
0 0 0 0 0 0 0 0 0 0 0 0 0 0 0 0 0 0 0 0 0 0 0 0 0 0 0 0 0 0 0 0 0 0 0 0 0 0 0 0 0 0 0 0 0 0 0 0 0 0 0 0 0 0
0 0 0 0 0 0 0 0 0 0 0 0 0 0 0 0 0 0 0 0 0 0 0 0 0 0 0 0 0 0 0 0 0 0 0 0 0 0 0 0 0 0 0 0 0 0 0 0 0 0 0 0 0 0
0 0 0 0 0 0 0 0 0 0 0 0 0 0 0 0 0 0 0 0 0 0 0 0 0 0 0 0 0 0 0 0 0 0 0 0 0 0 0 0 0 0 0 0 0 0 0 0 0 0 0 0 0 0
-0 0 0 0 0 0 0 0 0 0 0 0 0 0 0 0 0 0 0 0 0 0 0 0 0 0 0 0 0 0 0 0 0 0 0 0 0 0 0 0 0 0 0 0 0 0 0 0 0 0 0 0 0 0
-0 0 0 0 0 0 0 0 0 0 0 0 0 0 0 0 0 0 0 0 0 0 0 0 0 0 0 0 0 0 0 0 0 0 0 0 0 0 0 0 0 0 0 0 0 0 0 0 0 0 0 0 0 0
0 0 0 0 0 0 0 0 0 0 0 0 0 0 0 0 0 0 0 0 0 0 0 0 0 0 0 0 0 0 0 0 0 0 0 0 0 0 0 0 0 0 0 0 0 0 0 0 0 0 0 0 0 0
-0 -0 0 0 0 0 0 0 0 0 0 0 0 0 0 0 0 0 0 0 0 0 0 0 0 0 0 0 0 0 0 0 0 0 0 0 0 0 0 0 0 0 0 0 0 0 0 0 0 0 0 0 0 0
-0 0 0 0 -0 0 0 0 0 0 0 0 0 0 0 0 0 0 0 0 0 0 0 0 0 0 0 0 0 0 0 0 0 0 0 0 0 0 0 0 0 0 0 0 0 0 0 0 0 0 0 0 0 0
-0 0 0 0 0 0 0 0 0 0 0 0 0 0 0 0 0 0 0 0 0 0 0 0 0 0 0 0 0 0 0 0 0 0 0 0 0 0 0 0 0 0 0 0 0 0 0 0 0 0 0 0 0 0
0 0 0 0 -0 -0 0 0 0 0 0 0 0 0 0 0 0 0 0 0 0 0 0 0 0 0 0 0 0 0 0 0 0 0 0 0 0 0 0 0 0 0 0 0 0 0 0 0 0 0 0 0 0 0
0 0 0 0 0 0 0 0 0 0 0 0 0 0 0 0 0 0 0 -0 -0 -0 -0 -0 -0 0 0 0 0 0 0 0 0 0 0 0 0 0 0 0 0 0 0 0 0 0 0 0 0 0 0 0 0 0
Wind_Speed_500mb
55 55 58 59 62 64 66 54 58 53 55 53 51 46 44 40 39 25 16 18 24 7 12 24 21 16 15 15 8 17 12 2 2 7 6 6 6 11 8 7 11 14 15 7 6 2 14 27 10 18 10 17 28 27
59 56 55 59 61 66 66 61 60 49 56 57 52 52 46 46 46 39 27 20 20 8 6 22 27 22 22 24 18 36 8 10 13 6 3 5 5 3 6 9 2 7 10 11 14 9 2 59 5 22 35 39 32 33
59 57 61 57 59 58 62 55 56 64 49 55 54 53 54 47 50 56 39 36 29 10 12 20 19 27 27 25 21 13 8 17 15 13 7 3 5 6 7 7 3 8 7 6 8 10 8 45 19 37 30 28 26 24
58 60 65 64 60 58 59 55 53 62 44 54 52 52 51 52 49 59 52 44 42 10 3 6 18 17 36 31 28 23 8 21 22 18 6 5 5 8 4 2 8 6 18 11 2 3 7 17 55 34 40 32 27 25
54 58 61 67 68 63 62 59 57 54 68 46 46 53 50 53 52 54 56 49 41 18 10 4 5 22 23 35 29 35 25 33 21 6 5 4 9 8 3 6 7 13 13 10 8 27 20 26 55 54 46 47 37 26
46 42 42 53 70 69 63 62 64 62 50 61 54 50 53 46 56 50 30 62 53 47 6 0 2 8 25 28 25 22 31 27 13 12 5 9 10 9 7 7 6 26 28 25 11 25 44 21 23 31 34 30 34 35
41 41 34 42 43 64 63 60 60 64 55 60 61 54 53 53 54 41 11 19 72 52 16 3 4 6 21 28 22 21 25 10 7 11 6 10 8 14 4 9 11 35 33 30 29 26 28 37 31 27 31 32 34 36
40 40 41 50 48 65 62 61 59 63 57 55 52 54 54 53 47 48 52 22 66 50 18 7 3 5 23 10 8 15 14 11 7 10 9 4 10 6 6 10 13 27 25 32 38 39 43 44 38 34 30 27 35 42
43 44 46 45 31 53 59 59 62 59 54 49 53 44 41 45 40 37 52 46 62 23 14 8 13 9 25 9 12 9 10 3 9 5 4 14 6 10 19 28 38 41 39 47 44 47 51 53 56 52 47 44 44 49
45 48 58 47 36 42 55 58 60 65 58 59 51 21 14 22 38 64 44 34 19 11 12 5 15 6 16 7 6 10 6 6 5 8 21 6 7 61 42 47 49 51 50 45 49 45 46 50 53 52 48 44 46 45
40 48 59 41 23 34 47 52 50 62 78 52 17 10 48 51 15 9 9 7 7 5 12 12 9 10 14 7 6 6 5 4 6 8 11 5 7 30 42 59 68 70 67 57 54 59 56 54 52 48 49 43 37 36
33 45 39 22 23 27 45 43 41 64 36 40 30 46 28 11 7 7 6 6 4 8 5 9 11 12 16 13 7 9 6 4 9 10 7 5 9 10 6 24 35 38 43 47 47 48 44 45 49 49 47 41 37 38
31 34 66 19 19 30 45 40 45 48 60 52 13 11 13 7 6 11 10 2 5 6 19 15 5 13 11 8 6 4 7 7 18 5 8 10 7 17 15 11 12 20 24 28 29 29 29 28 28 29 29 28 27 28
38 41 50 59 11 33 43 43 52 66 52 11 9 10 7 6 7 8 11 11 12 21 46 37 11 6 8 5 6 8 3 6 4 4 13 2 22 27 20 16 12 10 12 13 14 15 15 14 14 13 14 14 14 15
26 36 39 60 44 20 26 57 79 56 11 10 13 10 7 6 10 8 16 24 14 48 50 18 13 10 3 7 5 7 5 7 10 10 4 17 25 26 21 16 12 7 5 5 3 3 4 5 5 6 8 9 10 11
32 29 51 47 48 39 31 50 52 23 11 7 10 8 8 7 5 1 15 17 29 49 24 13 7 7 4 7 8 9 11 11 4 4 7 16 18 21 20 19 17 15 13 11 8 5 3 6 8 12 16 17 17 15
29 36 41 34 29 34 27 29 14 13 11 10 7 19 13 18 13 6 13 10 41 18 5 6 9 6 5 5 5 6 4 2 4 5 10 13 17 18 17 16 12 12 11 13 13 13 12 15 16 17 16 18 16 12
31 31 29 24 20 18 34 22 13 13 12 17 8 9 16 19 17 17 16 21 13 6 8 7 13 6 7 9 6 4 11 7 5 7 11 12 13 15 16 15 14 17 17 20 21 20 20 19 14 13 13 13 12 10
21 26 24 18 20 10 10 14 14 9 13 11 13 21 24 24 39 29 27 24 24 19 15 9 12 6 6 9 9 11 14 14 10 14 8 9 8 9 9 10 11 11 13 15 16 16 14 14 14 13 12 9 7 5
21 21 19 9 11 9 10 12 11 13 6 7 13 15 16 17 19 35 38 28 25 16 19 12 5 6 9 12 15 15 13 16 15 9 7 11 8 8 8 9 9 12 13 16 16 16 15 12 11 9 8 6 5 4
20 12 10 10 17 20 14 11 15 12 11 13 10 11 14 18 19 24 28 30 30 17 7 13 17 18 14 9 10 13 11 13 11 10 11 7 2 6 9 11 12 11 11 11 10 11 10 9 8 8 8 7 5 4
6 9 10 14 13 12 17 20 10 7 9 8 10 13 14 6 14 20 17 36 15 15 15 22 27 23 15 12 12 11 12 10 8 6 5 2 2 6 8 8 7 7 8 7 7 7 7 7 5 5 4 2 1 1
18 16 14 17 12 16 7 12 10 13 7 5 8 8 8 8 11 13 14 15 12 27 29 29 23 12 17 18 16 15 16 15 12 9 8 6 5 7 7 7 8 8 8 8 7 5 3 1 0 1 1 1 1 3
17 16 20 16 24 5 7 12 11 9 10 8 7 7 7 7 8 13 8 9 21 30 32 32 29 22 21 22 24 23 22 21 20 16 15 15 13 13 13 12 11 9 8 6 4 4 5 5 5 5 4 4 6 8
13 26 19 16 23 13 13 9 11 9 9 9 7 7 6 9 6 8 5 16 33 36 34 28 29 31 29 25 25 24 20 18 18 18 17 15 15 13 12 11 10 8 8 8 7 7 7 7 7 7 9 10 13 15
18 22 14 14 13 10 8 7 10 10 7 8 9 7 7 6 9 7 4 25 24 32 32 29 26 26 29 27 23 21 20 15 12 11 14 14 13 12 11 9 8 7 9 9 9 10 11 11 11 13 14 17 21 24
14 11 17 21 11 7 8 14 14 10 11 10 6 7 6 10 8 5 12 26 23 24 22 21 23 28 32 30 22 19 18 16 15 12 13 16 17 16 15 14 14 14 15 16 16 17 17 18 19 20 23 23 25 30
14 23 12 26 17 23 7 8 10 10 7 13 3 11 7 6 1 7 13 17 14 15 20 23 23 24 25 27 28 23 15 12 10 7 4 7 10 11 17 17 17 19 21 22 23 24 26 27 28 32 34 36 36 38
15 32 11 11 13 18 17 10 7 10 13 5 4 5 7 10 15 17 19 20 21 22 22 20 21 18 16 19 20 18 15 14 13 12 13 16 17 17 25 27 27 29 31 33 32 33 33 29 38 44 46 49 51 53
20 30 9 13 10 11 17 16 20 27 34 33 36 54 46 40 31 26 25 22 22 24 22 21 20 22 25 26 24 21 24 22 18 26 34 36 40 41 43 44 45 45 46 47 48 48 48 48 51 52 55 57 59 61
19 17 13 16 11 11 23 37 42 43 46 47 45 47 38 28 46 52 52 40 27 23 20 23 26 33 38 38 39 41 38 28 33 34 37 41 44 45 46 46 45 47 49 50 52 53 56 58 60 62 63 64 63 64
20 18 7 7 5 9 9 10 12 16 12 10 8 9 7 6 6 5 25 47 55 38 33 33 41 45 38 33 31 33 34 37 38 38 37 37 39 39 40 41 44 46 48 49 50 52 53 55 58 58 61 62 62 62
11 18 17 9 6 5 11 7 5 5 5 4 4 5 6 5 5 1 9 31 60 46 36 38 38 38 34 34 32 30 30 30 31 32 34 35 36 38 38 42 46 46 50 52 52 52 53 52 53 54 55 56 58 59
Wind_Direction_500mb
276 272 265 260 263 257 267 268 246 251 246 241 238 237 234 230 241 245 247 208 207 224 212 207 190 165 148 159 156 151 106 212 125 206 155 189 147 196 121 153 179 160 160 187 127 173 256 151 119 171 166 128 158 171
274 273 268 265 261 251 254 263 248 252 242 237 238 233 228 224 227 239 213 199 188 216 248 216 221 203 177 169 151 169 139 146 163 112 106 115 110 185 134 190 188 201 179 172 184 209 354 175 137 156 151 151 168 182
276 269 268 269 259 249 250 255 254 238 243 232 235 233 228 229 218 220 233 202 189 223 248 234 226 216 218 202 169 135 181 158 158 128 132 111 130 152 157 242 122 250 148 165 131 192 209 200 191 183 172 173 191 209
278 272 264 260 258 252 247 249 255 242 253 228 235 230 231 224 218 215 217 213 211 176 123 273 225 209 210 211 205 200 188 181 154 154 114 135 129 201 231 175 203 174 138 140 346 1 154 224 213 194 202 209 214 227
293 281 268 254 249 246 246 246 247 252 234 237 234 236 230 229 213 214 223 224 218 197 189 214 200 203 202 202 206 201 197 191 165 115 111 168 123 119 356 356 262 188 158 167 199 191 178 206 210 215 228 235 243 235
305 294 273 265 245 241 240 244 238 242 252 230 233 233 230 228 202 204 195 220 213 211 187 340 177 173 186 185 192 178 179 182 170 136 147 129 142 139 147 215 265 173 181 169 167 184 200 212 227 237 239 241 228 239
319 313 302 277 253 237 235 237 232 232 246 231 230 227 232 217 223 215 202 196 200 197 162 26 325 134 160 165 162 170 182 167 138 125 103 131 149 155 104 232 152 185 184 191 211 198 211 242 245 251 248 250 243 253
323 319 308 304 270 232 233 232 227 225 239 221 221 218 223 208 215 218 220 178 180 172 169 155 246 154 162 138 122 156 159 154 169 128 118 110 106 90 246 245 224 210 196 219 228 228 247 262 265 260 263 246 239 242
321 325 324 310 283 230 228 221 217 218 222 205 199 200 203 202 198 195 210 179 178 174 169 141 154 187 162 128 120 126 142 131 168 126 189 143 153 215 232 222 239 237 216 245 253 250 253 253 262 263 264 265 255 266
321 320 316 310 278 238 216 209 215 217 203 188 183 164 155 155 177 149 155 165 166 179 154 115 137 151 166 126 115 120 149 166 170 222 144 190 230 238 239 237 250 261 261 258 252 247 247 252 263 270 273 281 275 274
319 326 320 305 264 212 206 208 213 224 179 176 161 110 139 128 135 97 129 139 120 127 159 134 153 130 177 122 156 181 175 143 149 233 153 192 262 247 237 245 256 264 269 266 267 274 276 278 279 281 282 281 273 266
329 347 348 310 237 226 208 203 207 183 178 156 137 133 141 136 113 114 111 95 127 186 139 126 159 114 141 153 109 173 147 94 205 153 114 205 254 70 151 233 249 261 267 271 274 276 276 272 271 273 274 273 267 262
333 308 5 334 235 210 201 195 202 191 162 138 131 123 130 143 122 155 140 89 147 171 170 161 109 127 126 144 83 128 152 185 123 130 211 225 34 9 353 306 269 267 269 269 268 267 265 264 262 261 264 264 260 254
359 353 344 18 233 199 207 201 201 168 157 109 134 122 157 159 174 185 173 160 175 157 146 131 113 127 129 93 135 128 144 102 124 171 231 346 354 350 347 334 316 285 274 268 269 267 263 259 259 256 250 243 242 232
3 15 349 14 45 191 202 186 184 186 92 107 122 138 172 129 55 83 114 114 117 149 139 108 86 108 74 115 141 114 146 202 197 221 254 341 350 356 8 20 28 30 27 26 6 321 263 240 222 203 181 175 166 168
16 22 23 7 15 39 107 144 155 133 91 94 73 110 115 100 19 345 92 99 129 142 123 92 109 97 177 154 152 194 167 208 228 220 311 342 356 2 13 23 33 44 56 64 67 72 97 131 140 146 149 148 147 147
5 25 3 15 12 14 44 86 67 62 70 53 59 62 43 77 108 109 84 98 149 133 121 113 112 166 99 115 114 16 108 74 25 346 346 356 2 10 21 29 39 62 76 92 95 104 114 120 125 126 132 127 130 136
4 1 357 8 22 42 46 38 68 66 63 42 74 23 64 63 90 82 87 111 121 85 120 174 124 98 136 141 158 89 74 55 55 16 1 12 32 45 53 62 73 86 95 101 105 110 117 119 123 128 131 133 135 143
18 3 0 10 31 54 55 35 35 82 54 67 75 57 66 74 64 73 87 88 93 97 110 31 65 45 39 27 14 39 26 17 334 327 352 30 53 70 75 78 90 101 109 116 118 123 124 128 132 133 138 140 146 133
337 345 360 25 44 58 71 47 49 80 77 65 61 55 65 69 65 53 67 78 81 51 42 40 51 23 352 343 351 339 331 340 349 10 42 33 61 75 92 106 114 116 119 119 122 125 130 137 145 147 147 141 138 141
301 330 16 96 59 62 71 37 55 66 85 81 75 67 71 62 46 38 33 31 58 36 53 43 8 357 354 356 351 347 346 338 351 348 328 338 46 107 121 128 130 132 133 136 142 145 151 156 158 159 161 162 162 169
144 116 94 62 69 68 65 40 68 67 67 74 54 52 48 42 30 23 35 48 58 29 1 346 350 353 13 25 18 13 8 7 13 1 11 61 121 119 124 130 119 126 130 132 133 141 150 152 148 148 149 146 152 183
106 101 58 38 76 49 28 32 55 29 66 28 45 48 30 48 44 29 72 63 67 8 5 8 7 30 45 41 37 31 37 43 47 45 51 82 90 102 99 98 104 108 117 122 122 126 124 126 214 290 292 283 264 293
67 51 32 38 32 34 27 34 41 50 60 44 54 59 30 26 47 59 72 62 3 15 26 31 42 63 66 58 51 51 53 56 59 61 70 78 87 92 94 93 92 87 83 75 58 19 353 338 324 315 299 277 274 278
71 13 22 7 17 26 32 21 12 37 56 28 69 51 13 28 66 55 68 4 9 20 26 39 49 53 53 53 51 49 51 60 66 67 72 76 79 78 79 73 64 56 46 29 10 2 347 330 315 299 290 288 288 289
65 16 36 357 10 38 355 48 30 23 27 61 43 353 46 63 63 49 8 349 357 10 16 26 34 44 44 40 44 50 47 49 53 50 58 59 62 62 61 51 41 21 12 357 343 336 332 327 315 303 296 293 294 294
45 351 12 22 0 353 55 53 45 50 55 34 353 17 46 65 63 348 8 4 5 22 34 47 55 57 50 45 43 37 40 49 53 67 73 69 59 53 44 34 22 6 356 346 337 330 324 319 314 308 301 296 297 297
52 27 21 345 40 35 51 48 34 27 8 351 341 39 74 62 161 23 18 27 43 65 73 77 73 59 51 48 46 49 52 47 32 45 34 352 338 346 2 349 338 329 323 320 317 313 312 312 309 298 296 297 298 297
30 354 7 29 48 46 41 33 16 356 337 8 53 76 89 71 84 86 74 78 84 88 83 73 63 53 43 31 20 15 11 15 13 4 351 332 320 307 316 317 313 309 304 300 298 299 299 303 288 291 294 295 295 296
360 6 47 43 44 42 18 37 42 61 74 85 100 103 93 84 82 85 81 73 65 58 48 37 24 12 7 358 354 3 353 340 333 333 327 320 317 314 313 311 309 307 304 302 301 298 295 293 290 288 289 290 291 291
357 18 61 51 72 54 67 81 82 86 93 95 99 100 107 104 78 64 55 45 38 33 27 21 10 356 346 342 336 333 333 326 321 320 316 312 310 311 311 311 310 305 306 307 306 304 304 302 302 301 300 300 299 299
25 32 61 84 82 86 76 86 83 106 103 105 93 99 104 104 90 72 27 19 16 10 4 353 350 352 350 343 337 331 330 328 326 325 324 323 322 321 320 316 311 313 314 312 311 310 309 308 307 306 306 305 304 304
44 44 55 71 66 50 21 43 89 92 98 87 66 81 84 78 98 246 349 358 357 354 351 351 350 349 346 340 337 333 332 330 330 328 325 324 323 323 321 316 320 319 315 314 314 314 313 312 311 311 310 309 307 306
Wind_Speed_850mb
55 55 58 59 62 64 66 54 58 53 55 53 51 46 44 40 39 25 16 18 24 7 12 24 21 16 15 15 8 17 12 2 2 7 6 6 6 11 8 7 11 14 15 7 6 2 14 27 10 18 10 17 28 27
59 56 55 59 61 66 66 61 60 49 56 57 52 52 46 46 46 39 27 20 20 8 6 22 27 22 22 24 18 36 8 10 13 6 3 5 5 3 6 9 2 7 10 11 14 9 2 59 5 22 35 39 32 33
59 57 61 57 59 58 62 55 56 64 49 55 54 53 54 47 50 56 39 36 29 10 12 20 19 27 27 25 21 13 8 17 15 13 7 3 5 6 7 7 3 8 7 6 8 10 8 45 19 37 30 28 26 24
58 60 65 64 60 58 59 55 53 62 44 54 52 52 51 52 49 59 52 44 42 10 3 6 18 17 36 31 28 23 8 21 22 18 6 5 5 8 4 2 8 6 18 11 2 3 7 17 55 34 40 32 27 25
54 58 61 67 68 63 62 59 57 54 68 46 46 53 50 53 52 54 56 49 41 18 10 4 5 22 23 35 29 35 25 33 21 6 5 4 9 8 3 6 7 13 13 10 8 27 20 26 55 54 46 47 37 26
46 42 42 53 70 69 63 62 64 62 50 61 54 50 53 46 56 50 30 62 53 47 6 0 2 8 25 28 25 22 31 27 13 12 5 9 10 9 7 7 6 26 28 25 11 25 44 21 23 31 34 30 34 35
41 41 34 42 43 64 63 60 60 64 55 60 61 54 53 53 54 41 11 19 72 52 16 3 4 6 21 28 22 21 25 10 7 11 6 10 8 14 4 9 11 35 33 30 29 26 28 37 31 27 31 32 34 36
40 40 41 50 48 65 62 61 59 63 57 55 52 54 54 53 47 48 52 22 66 50 18 7 3 5 23 10 8 15 14 11 7 10 9 4 10 6 6 10 13 27 25 32 38 39 43 44 38 34 30 27 35 42
43 44 46 45 31 53 59 59 62 59 54 49 53 44 41 45 40 37 52 46 62 23 14 8 13 9 25 9 12 9 10 3 9 5 4 14 6 10 19 28 38 41 39 47 44 47 51 53 56 52 47 44 44 49
45 48 58 47 36 42 55 58 60 65 58 59 51 21 14 22 38 64 44 34 19 11 12 5 15 6 16 7 6 10 6 6 5 8 21 6 7 61 42 47 49 51 50 45 49 45 46 50 53 52 48 44 46 45
40 48 59 41 23 34 47 52 50 62 78 52 17 10 48 51 15 9 9 7 7 5 12 12 9 10 14 7 6 6 5 4 6 8 11 5 7 30 42 59 68 70 67 57 54 59 56 54 52 48 49 43 37 36
33 45 39 22 23 27 45 43 41 64 36 40 30 46 28 11 7 7 6 6 4 8 5 9 11 12 16 13 7 9 6 4 9 10 7 5 9 10 6 24 35 38 43 47 47 48 44 45 49 49 47 41 37 38
31 34 66 19 19 30 45 40 45 48 60 52 13 11 13 7 6 11 10 2 5 6 19 15 5 13 11 8 6 4 7 7 18 5 8 10 7 17 15 11 12 20 24 28 29 29 29 28 28 29 29 28 27 28
38 41 50 59 11 33 43 43 52 66 52 11 9 10 7 6 7 8 11 11 12 21 46 37 11 6 8 5 6 8 3 6 4 4 13 2 22 27 20 16 12 10 12 13 14 15 15 14 14 13 14 14 14 15
26 36 39 60 44 20 26 57 79 56 11 10 13 10 7 6 10 8 16 24 14 48 50 18 13 10 3 7 5 7 5 7 10 10 4 17 25 26 21 16 12 7 5 5 3 3 4 5 5 6 8 9 10 11
32 29 51 47 48 39 31 50 52 23 11 7 10 8 8 7 5 1 15 17 29 49 24 13 7 7 4 7 8 9 11 11 4 4 7 16 18 21 20 19 17 15 13 11 8 5 3 6 8 12 16 17 17 15
29 36 41 34 29 34 27 29 14 13 11 10 7 19 13 18 13 6 13 10 41 18 5 6 9 6 5 5 5 6 4 2 4 5 10 13 17 18 17 16 12 12 11 13 13 13 12 15 16 17 16 18 16 12
31 31 29 24 20 18 34 22 13 13 12 17 8 9 16 19 17 17 16 21 13 6 8 7 13 6 7 9 6 4 11 7 5 7 11 12 13 15 16 15 14 17 17 20 21 20 20 19 14 13 13 13 12 10
21 26 24 18 20 10 10 14 14 9 13 11 13 21 24 24 39 29 27 24 24 19 15 9 12 6 6 9 9 11 14 14 10 14 8 9 8 9 9 10 11 11 13 15 16 16 14 14 14 13 12 9 7 5
21 21 19 9 11 9 10 12 11 13 6 7 13 15 16 17 19 35 38 28 25 16 19 12 5 6 9 12 15 15 13 16 15 9 7 11 8 8 8 9 9 12 13 16 16 16 15 12 11 9 8 6 5 4
20 12 10 10 17 20 14 11 15 12 11 13 10 11 14 18 19 24 28 30 30 17 7 13 17 18 14 9 10 13 11 13 11 10 11 7 2 6 9 11 12 11 11 11 10 11 10 9 8 8 8 7 5 4
6 9 10 14 13 12 17 20 10 7 9 8 10 13 14 6 14 20 17 36 15 15 15 22 27 23 15 12 12 11 12 10 8 6 5 2 2 6 8 8 7 7 8 7 7 7 7 7 5 5 4 2 1 1
18 16 14 17 12 16 7 12 10 13 7 5 8 8 8 8 11 13 14 15 12 27 29 29 23 12 17 18 16 15 16 15 12 9 8 6 5 7 7 7 8 8 8 8 7 5 3 1 0 1 1 1 1 3
17 16 20 16 24 5 7 12 11 9 10 8 7 7 7 7 8 13 8 9 21 30 32 32 29 22 21 22 24 23 22 21 20 16 15 15 13 13 13 12 11 9 8 6 4 4 5 5 5 5 4 4 6 8
13 26 19 16 23 13 13 9 11 9 9 9 7 7 6 9 6 8 5 16 33 36 34 28 29 31 29 25 25 24 20 18 18 18 17 15 15 13 12 11 10 8 8 8 7 7 7 7 7 7 9 10 13 15
18 22 14 14 13 10 8 7 10 10 7 8 9 7 7 6 9 7 4 25 24 32 32 29 26 26 29 27 23 21 20 15 12 11 14 14 13 12 11 9 8 7 9 9 9 10 11 11 11 13 14 17 21 24
14 11 17 21 11 7 8 14 14 10 11 10 6 7 6 10 8 5 12 26 23 24 22 21 23 28 32 30 22 19 18 16 15 12 13 16 17 16 15 14 14 14 15 16 16 17 17 18 19 20 23 23 25 30
14 23 12 26 17 23 7 8 10 10 7 13 3 11 7 6 1 7 13 17 14 15 20 23 23 24 25 27 28 23 15 12 10 7 4 7 10 11 17 17 17 19 21 22 23 24 26 27 28 32 34 36 36 38
15 32 11 11 13 18 17 10 7 10 13 5 4 5 7 10 15 17 19 20 21 22 22 20 21 18 16 19 20 18 15 14 13 12 13 16 17 17 25 27 27 29 31 33 32 33 33 29 38 44 46 49 51 53
20 30 9 13 10 11 17 16 20 27 34 33 36 54 46 40 31 26 25 22 22 24 22 21 20 22 25 26 24 21 24 22 18 26 34 36 40 41 43 44 45 45 46 47 48 48 48 48 51 52 55 57 59 61
19 17 13 16 11 11 23 37 42 43 46 47 45 47 38 28 46 52 52 40 27 23 20 23 26 33 38 38 39 41 38 28 33 34 37 41 44 45 46 46 45 47 49 50 52 53 56 58 60 62 63 64 63 64
20 18 7 7 5 9 9 10 12 16 12 10 8 9 7 6 6 5 25 47 55 38 33 33 41 45 38 33 31 33 34 37 38 38 37 37 39 39 40 41 44 46 48 49 50 52 53 55 58 58 61 62 62 62
11 18 17 9 6 5 11 7 5 5 5 4 4 5 6 5 5 1 9 31 60 46 36 38 38 38 34 34 32 30 30 30 31 32 34 35 36 38 38 42 46 46 50 52 52 52 53 52 53 54 55 56 58 59
Wind_Direction_850mb
276 272 265 260 263 257 267 268 246 251 246 241 238 237 234 230 241 245 247 208 207 224 212 207 190 165 148 159 156 151 106 212 125 206 155 189 147 196 121 153 179 160 160 187 127 173 256 151 119 171 166 128 158 171
274 273 268 265 261 251 254 263 248 252 242 237 238 233 228 224 227 239 213 199 188 216 248 216 221 203 177 169 151 169 139 146 163 112 106 115 110 185 134 190 188 201 179 172 184 209 354 175 137 156 151 151 168 182
276 269 268 269 259 249 250 255 254 238 243 232 235 233 228 229 218 220 233 202 189 223 248 234 226 216 218 202 169 135 181 158 158 128 132 111 130 152 157 242 122 250 148 165 131 192 209 200 191 183 172 173 191 209
278 272 264 260 258 252 247 249 255 242 253 228 235 230 231 224 218 215 217 213 211 176 123 273 225 209 210 211 205 200 188 181 154 154 114 135 129 201 231 175 203 174 138 140 346 1 154 224 213 194 202 209 214 227
293 281 268 254 249 246 246 246 247 252 234 237 234 236 230 229 213 214 223 224 218 197 189 214 200 203 202 202 206 201 197 191 165 115 111 168 123 119 356 356 262 188 158 167 199 191 178 206 210 215 228 235 243 235
305 294 273 265 245 241 240 244 238 242 252 230 233 233 230 228 202 204 195 220 213 211 187 340 177 173 186 185 192 178 179 182 170 136 147 129 142 139 147 215 265 173 181 169 167 184 200 212 227 237 239 241 228 239
319 313 302 277 253 237 235 237 232 232 246 231 230 227 232 217 223 215 202 196 200 197 162 26 325 134 160 165 162 170 182 167 138 125 103 131 149 155 104 232 152 185 184 191 211 198 211 242 245 251 248 250 243 253
323 319 308 304 270 232 233 232 227 225 239 221 221 218 223 208 215 218 220 178 180 172 169 155 246 154 162 138 122 156 159 154 169 128 118 110 106 90 246 245 224 210 196 219 228 228 247 262 265 260 263 246 239 242
321 325 324 310 283 230 228 221 217 218 222 205 199 200 203 202 198 195 210 179 178 174 169 141 154 187 162 128 120 126 142 131 168 126 189 143 153 215 232 222 239 237 216 245 253 250 253 253 262 263 264 265 255 266
321 320 316 310 278 238 216 209 215 217 203 188 183 164 155 155 177 149 155 165 166 179 154 115 137 151 166 126 115 120 149 166 170 222 144 190 230 238 239 237 250 261 261 258 252 247 247 252 263 270 273 281 275 274
319 326 320 305 264 212 206 208 213 224 179 176 161 110 139 128 135 97 129 139 120 127 159 134 153 130 177 122 156 181 175 143 149 233 153 192 262 247 237 245 256 264 269 266 267 274 276 278 279 281 282 281 273 266
329 347 348 310 237 226 208 203 207 183 178 156 137 133 141 136 113 114 111 95 127 186 139 126 159 114 141 153 109 173 147 94 205 153 114 205 254 70 151 233 249 261 267 271 274 276 276 272 271 273 274 273 267 262
333 308 5 334 235 210 201 195 202 191 162 138 131 123 130 143 122 155 140 89 147 171 170 161 109 127 126 144 83 128 152 185 123 130 211 225 34 9 353 306 269 267 269 269 268 267 265 264 262 261 264 264 260 254
359 353 344 18 233 199 207 201 201 168 157 109 134 122 157 159 174 185 173 160 175 157 146 131 113 127 129 93 135 128 144 102 124 171 231 346 354 350 347 334 316 285 274 268 269 267 263 259 259 256 250 243 242 232
3 15 349 14 45 191 202 186 184 186 92 107 122 138 172 129 55 83 114 114 117 149 139 108 86 108 74 115 141 114 146 202 197 221 254 341 350 356 8 20 28 30 27 26 6 321 263 240 222 203 181 175 166 168
16 22 23 7 15 39 107 144 155 133 91 94 73 110 115 100 19 345 92 99 129 142 123 92 109 97 177 154 152 194 167 208 228 220 311 342 356 2 13 23 33 44 56 64 67 72 97 131 140 146 149 148 147 147
5 25 3 15 12 14 44 86 67 62 70 53 59 62 43 77 108 109 84 98 149 133 121 113 112 166 99 115 114 16 108 74 25 346 346 356 2 10 21 29 39 62 76 92 95 104 114 120 125 126 132 127 130 136
4 1 357 8 22 42 46 38 68 66 63 42 74 23 64 63 90 82 87 111 121 85 120 174 124 98 136 141 158 89 74 55 55 16 1 12 32 45 53 62 73 86 95 101 105 110 117 119 123 128 131 133 135 143
18 3 0 10 31 54 55 35 35 82 54 67 75 57 66 74 64 73 87 88 93 97 110 31 65 45 39 27 14 39 26 17 334 327 352 30 53 70 75 78 90 101 109 116 118 123 124 128 132 133 138 140 146 133
337 345 360 25 44 58 71 47 49 80 77 65 61 55 65 69 65 53 67 78 81 51 42 40 51 23 352 343 351 339 331 340 349 10 42 33 61 75 92 106 114 116 119 119 122 125 130 137 145 147 147 141 138 141
301 330 16 96 59 62 71 37 55 66 85 81 75 67 71 62 46 38 33 31 58 36 53 43 8 357 354 356 351 347 346 338 351 348 328 338 46 107 121 128 130 132 133 136 142 145 151 156 158 159 161 162 162 169
144 116 94 62 69 68 65 40 68 67 67 74 54 52 48 42 30 23 35 48 58 29 1 346 350 353 13 25 18 13 8 7 13 1 11 61 121 119 124 130 119 126 130 132 133 141 150 152 148 148 149 146 152 183
106 101 58 38 76 49 28 32 55 29 66 28 45 48 30 48 44 29 72 63 67 8 5 8 7 30 45 41 37 31 37 43 47 45 51 82 90 102 99 98 104 108 117 122 122 126 124 126 214 290 292 283 264 293
67 51 32 38 32 34 27 34 41 50 60 44 54 59 30 26 47 59 72 62 3 15 26 31 42 63 66 58 51 51 53 56 59 61 70 78 87 92 94 93 92 87 83 75 58 19 353 338 324 315 299 277 274 278
71 13 22 7 17 26 32 21 12 37 56 28 69 51 13 28 66 55 68 4 9 20 26 39 49 53 53 53 51 49 51 60 66 67 72 76 79 78 79 73 64 56 46 29 10 2 347 330 315 299 290 288 288 289
65 16 36 357 10 38 355 48 30 23 27 61 43 353 46 63 63 49 8 349 357 10 16 26 34 44 44 40 44 50 47 49 53 50 58 59 62 62 61 51 41 21 12 357 343 336 332 327 315 303 296 293 294 294
45 351 12 22 0 353 55 53 45 50 55 34 353 17 46 65 63 348 8 4 5 22 34 47 55 57 50 45 43 37 40 49 53 67 73 69 59 53 44 34 22 6 356 346 337 330 324 319 314 308 301 296 297 297
52 27 21 345 40 35 51 48 34 27 8 351 341 39 74 62 161 23 18 27 43 65 73 77 73 59 51 48 46 49 52 47 32 45 34 352 338 346 2 349 338 329 323 320 317 313 312 312 309 298 296 297 298 297
30 354 7 29 48 46 41 33 16 356 337 8 53 76 89 71 84 86 74 78 84 88 83 73 63 53 43 31 20 15 11 15 13 4 351 332 320 307 316 317 313 309 304 300 298 299 299 303 288 291 294 295 295 296
360 6 47 43 44 42 18 37 42 61 74 85 100 103 93 84 82 85 81 73 65 58 48 37 24 12 7 358 354 3 353 340 333 333 327 320 317 314 313 311 309 307 304 302 301 298 295 293 290 288 289 290 291 291
357 18 61 51 72 54 67 81 82 86 93 95 99 100 107 104 78 64 55 45 38 33 27 21 10 356 346 342 336 333 333 326 321 320 316 312 310 311 311 311 310 305 306 307 306 304 304 302 302 301 300 300 299 299
25 32 61 84 82 86 76 86 83 106 103 105 93 99 104 104 90 72 27 19 16 10 4 353 350 352 350 343 337 331 330 328 326 325 324 323 322 321 320 316 311 313 314 312 311 310 309 308 307 306 306 305 304 304
44 44 55 71 66 50 21 43 89 92 98 87 66 81 84 78 98 246 349 358 357 354 351 351 350 349 346 340 337 333 332 330 330 328 325 324 323 323 321 316 320 319 315 314 314 314 313 312 311 311 310 309 307 306